Location: Melbourne
(37.8666°S, 145.1333°E)
Time: 01:15:53
(UTC+10:00)

Daily predictions for brighter satellites

Satellite Brightness Start Highest point End
(mag) Time Altitude Azimuth Time Altitude Azimuth Time Altitude Azimuth
Cosmos 1980 Rocket 4.0 02:35:25 26° S 02:35:25 26° S 02:37:49 10° SSE
SL-16 R/B 2.8 03:05:25 54° SE 03:05:25 54° SE 03:09:48 10° SSE
ADEOS Rocket 3.4 03:05:50 46° ENE 03:06:51 52° ESE 03:12:14 10° S
Lacrosse 4 Rocket 3.8 03:13:28 17° SSE 03:13:28 17° SSE 03:14:31 10° SSE
Cosmos 1455 Rocket 4.3 03:26:39 37° SSE 03:26:39 37° SSE 03:29:24 10° SSE
BREEZE M DEB (TANK) 4.5 03:23:32 31° SSW 03:26:00 54° SE 03:43:00 10° ENE
Cosmos 2322 Rocket 2.6 03:28:11 54° SSW 03:28:11 54° SSW 03:32:55 10° SSE
ADEOS II 2.8 03:22:25 10° NNE 03:27:31 52° ESE 03:32:41 10° S
USA 234 3.1 03:27:01 10° NE 03:33:35 88° NW 03:40:13 10° SW
Cosmos 1535 Rocket 4.5 03:40:03 47° N 03:42:04 90° ENE 03:48:34 10° S
CZ-4B R/B 4.0 03:44:08 39° SW 03:44:08 39° SW 03:47:55 10° SSW
SL-16 R/B 2.9 03:36:07 10° SSE 03:42:19 63° ENE 03:46:10 24° N
UNK 4.1 03:38:55 10° SSE 03:43:34 63° E 03:44:18 54° NE
Okean-O 2.9 03:42:36 42° NE 03:43:57 65° ESE 03:48:25 10° S
Cosmos 1602 Rocket 4.4 03:39:55 10° S 03:44:22 50° E 03:48:45 10° NNE
Meteor 2-14 Rocket 4.3 03:45:39 46° N 03:47:39 87° W 03:53:53 10° S
Cosmos 1125 Rocket 3.4 03:43:33 10° SSW 03:48:54 89° WNW 03:54:07 10° NNE
Meteor 1-5 Rocket 4.4 03:50:00 49° SW 03:50:00 49° SW 03:54:38 10° S
Feng Yun 1-1 Rocket 4.4 03:45:35 10° NNE 03:51:31 82° ESE 03:57:31 10° SSW
Aureole 1 Rocket 4.3 03:51:13 27° NE 03:52:25 34° E 03:56:28 10° SE
Meteor 2-15 Rocket 4.4 03:51:00 10° S 03:57:13 84° E 04:03:21 10° N
Cosmos 1515 4.2 03:54:03 10° S 03:57:57 61° E 03:59:57 26° NNE
Atlas Centaur 2 2.8 04:01:58 23° NNE 04:01:58 23° NNE 04:04:00 10° ENE
Cosmos 540 Rocket 3.4 04:02:23 57° WNW 04:03:13 67° WSW 04:08:27 10° SSE
ATLAS 3B R/B 3.4 04:00:21 15° N 04:05:22 47° ENE 04:11:38 10° SE
Cosmos 1340 3.6 04:04:40 10° S 04:08:26 49° ESE 04:12:08 10° NNE
Cosmos 546 4.4 04:10:14 81° WNW 04:10:20 82° NW 04:14:12 10° NE
Cosmos 2263 Rocket 2.1 04:05:55 10° SSW 04:11:35 65° WNW 04:17:08 10° N
GPS 2-05 Rocket1 4.3 04:13:47 28° NNE 04:13:47 28° NNE 04:16:04 10° NE
EO 1 Del DPAF 3.9 04:10:59 10° SSE 04:14:54 57° E 04:17:52 16° N
Cosmos 2219 Rocket 4.2 04:10:19 10° NNE 04:14:59 27° ENE 04:19:39 10° SE
Cosmos 2360 Rocket 2.1 04:14:08 37° NW 04:16:20 67° WSW 04:22:00 10° SSE
CSL-04 DEB 4.4 04:16:34 10° NNE 04:20:43 83° ESE 04:24:48 10° SSW
Cosmos 371 Rocket 3.6 04:22:40 39° WNW 04:23:49 46° WSW 04:28:32 10° S
Cosmos 1934 Rocket 4.1 04:22:14 25° NW 04:25:35 51° W 04:31:34 10° S
Cosmos 1821 Rocket 4.4 04:25:45 28° NW 04:28:23 41° WSW 04:34:19 10° S
Cosmos 2322 3.8 04:26:11 29° NW 04:28:58 56° WSW 04:34:39 10° SSE
Radarsat Rocket 3.9 04:24:01 10° NNE 04:29:54 87° WNW 04:36:17 10° SSW
Cosmos 1605 Rocket 4.0 04:27:06 10° NNW 04:33:27 66° W 04:39:54 10° S
Meteor 1-31 Rocket 2.8 04:30:11 10° N 04:34:08 64° W 04:38:08 10° SSW
Cosmos 304 Rocket 4.1 04:33:42 10° N 04:38:30 69° ENE 04:43:23 10° SSE
Cosmos 1666 3.9 04:36:25 10° NNE 04:40:03 44° E 04:43:43 10° SSE
MOZ.5/SAFIR/RUBIN 5/SL-8 3.8 04:37:59 10° SSE 04:42:43 84° ENE 04:47:25 10° N
CZ-4B R/B 3.8 04:39:46 10° N 04:43:20 48° W 04:47:05 10° SSW
Cosmos 1825 Rocket 3.8 04:39:53 10° S 04:44:27 76° E 04:48:56 10° NNE
Cosmos 1975 4.1 04:44:51 23° W 04:45:04 23° WSW 04:48:25 10° SSW
SL-16 R/B 3.9 04:47:18 14° WSW 04:48:51 15° SW 04:52:10 10° SSW
ADEOS Rocket 4.1 04:52:46 18° W 04:52:46 18° W 04:56:23 10° SW
NOAA 6 4.1 04:48:17 10° N 04:53:20 54° W 04:58:27 10° SSW
Cosmos 1500 4.4 04:53:38 21° W 04:54:33 24° WSW 04:57:42 10° SSW
SEDSat Delta rocket 4.4 04:53:00 14° NW 04:56:07 26° NNE 04:59:43 10° ENE
Abrixas rocket 2.9 04:55:22 21° W 04:57:07 37° NW 05:00:17 10° NNE
Tiangong 2 3.0 05:00:48 15° NW 05:01:03 15° NW 05:03:02 10° N
ATLAS CENTAUR R/B 4.0 04:58:16 10° S 05:01:52 24° SE 05:05:40 10° ENE
CZ-4C R/B 3.3 04:54:13 10° NNW 05:02:02 68° ENE 05:09:11 10° SE
Cosmos 1680 Rocket 4.3 04:57:31 10° N 05:02:36 56° ENE 05:07:45 10° SSE
Cosmos 2333 Rocket 2.9 04:59:48 10° N 05:05:18 56° ENE 05:10:52 10° SSE
OAO 3 Rocket 3.8 05:01:31 14° WNW 05:05:32 48° NNE 05:10:16 10° E
CZ-3C R/B 4.1 04:58:18 11° NW 05:05:57 34° NNE 05:47:37 10° ENE
ADEOS II 3.4 05:04:00 10° NW 05:07:31 18° W 05:11:04 10° SW
Cosmos 1844 Rocket 2.9 05:02:54 10° SSW 05:08:38 79° ESE 05:14:17 10° NNE
H-2A R/B 4.3 05:05:57 12° WNW 05:11:54 33° N 05:47:12 10° NE
Cosmos 1844 4.3 05:06:16 10° SSW 05:12:05 64° ESE 05:17:51 10° NNE
SL-24 R/B 4.3 05:09:49 10° NNW 05:13:22 38° W 05:17:19 10° SSW
Cosmos 2058 Rocket 3.1 05:09:16 10° N 05:13:44 86° W 05:18:18 10° S
Cosmos 2100 Rocket 4.0 05:07:23 10° NNW 05:13:46 74° W 05:20:15 10° S
Cosmos 1743 3.7 05:10:24 10° NW 05:13:47 27° WSW 05:17:14 10° SSW
Cosmos 1802 Rocket 4.0 05:10:32 10° N 05:16:44 88° W 05:23:06 10° S
Cosmos 1953 Rocket 3.6 05:12:24 10° SSW 05:16:48 64° W 05:21:10 10° N
USA 234 4.4 05:12:28 10° NNW 05:17:04 20° WNW 05:21:43 10° WSW
Cosmos 2061 Rocket 4.1 05:11:27 10° N 05:17:54 77° W 05:24:26 10° S
Geosat 4.0 05:14:42 10° NNE 05:19:44 70° WNW 05:24:48 10° SSW
CZ-3 Stage 3 2.7 05:21:16 10° NNW 05:21:48 11° N 05:22:16 10° NNE
Cosmos 2237 Rocket 2.7 05:18:16 10° N 05:23:50 67° ENE 05:29:29 10° SSE
COSMOS 2455 3.2 05:19:13 10° NW 05:25:01 47° WSW 05:30:50 10° SSE
SL-16 R/B 3.8 05:20:58 10° SSW 05:25:22 21° WSW 05:29:45 10° WNW
COSMOS 2428 3.3 05:20:34 10° NW 05:25:53 39° WSW 05:31:16 10° S
Cosmos 1758 Rocket 3.8 05:25:43 10° SSW 05:30:07 52° W 05:34:25 10° N
CZ-4 R/B 1.9 05:27:07 10° NNE 05:31:19 72° ESE 05:35:36 10° S
ASTRO E2 3.9 05:28:51 10° WNW 05:32:28 32° N 05:36:05 10° ENE
ASTRO F (AKARI) 4.4 05:30:05 10° SSE 05:33:31 89° E 05:36:46 10° NNW
